DELTA 1 DEB, 42087

Orbit data source: Space-Track

DELTA 1 DEB, 42087 is space debris in SSO originally from a launch on Sun, 15 Dec 1968 UTC launched from the Air Force Western Test Range (AFWTR). Debris objects in space refer to the collection of defunct objects orbiting the Earth. Examples of debris include non-operational satellites, rocket bodies, and fragments generated from explosions, collisions, or faulty payload assembly.

Loading next visibility...
Identifier
42087, 1968-114P
Orbit
SSO
Country
Flag of USUS
Related business
Manufacturer
Aerojet
Mission
Spacecraft
Bus & Motor
Unknown
Mass
Unknown
Launch date (UTC)
1968-12-15 (58 years ago)
Launch vehicle
Unknown
Launch site
Air Force Western Test Range (AFWTR)
Object type
Payload
Rocket body
Debris
Shape & HBR
Unknown shape, 0.1 m
Radar Cross Section
Medium (>0.1 m² and <1 m²)

Expand to show TLE details & history
Last TLE update: 3 days ago

TLE from 3 days ago
0 DELTA 1 DEB
1 42087U 68114P   26170.08919116  .00000546  00000-0  43443-2 0  9997
2 42087 101.4331 120.2810 0200503 335.9151  23.2637 12.35686242566398
Epoch: 2026-06-19T02:08Z
TLE epoch observation values (Epoch: 2026-06-19T02:08:26.116Z)
Latitude
-0.00001°
Longitude
-179.15099°
Altitude
1,382.421 km
Speed
7.234 km/s
True Right ascension
08h 01m 07s
True Declination
0° 00' 00"
Sunlit
Object was in daylight at epoch
Visualization orbit readout
Latitude
Unknown
Longitude
Unknown
Altitude
Unknown
Speed
Unknown
Apparent Right ascension
Unknown
Apparent Declination
Unknown
Sunlit
N/A
Visualization observer readout
Local Sidereal Time
21:47:23
Azimuth
Unknown
Elevation
Unknown
Doppler factor
Unknown
Orbital elements
Apogee altitude
1,680.899 km
Perigee altitude
1,364.079 km
Semi-major axis
7,900.626 km
Eccentricity
0.02005
Inclination
101.4331°
RAAN
120.281°
Arg. of periapsis
335.9151°
True anomaly
24.19249°
Mean anomaly
23.2637°
Eccentric anomaly
23.72593°
Mean motion
3.09066 °/min
Orbital period
116.48 mins
BSTAR
0.0043443
Loading maneuver chart data...
Computing Atmospheric mass density...
Loading historical data...
Loading historical data...
Loading historical data...
Loading historical data...
Loading historical data...
Loading historical data...
Loading historical data...

Documentation

Showing up to 5 results
|